Lapse_Rate
5.0 5.3 5.4 5.8 5.7 5.9 5.4 5.6 5.7 5.5 5.2 4.8 5.1 5.1 5.1 5.1 5.4 5.6 5.7 5.6 5.7 5.9 5.9 5.6 5.6 5.6 5.7 5.5 5.4 5.2 4.4 4.6 4.7 4.8 5.6 6.0 5.6 4.8 5.0 5.2 5.1 4.6 4.2 4.3 4.5
5.8 5.4 5.3 5.7 5.8 6.2 5.8 5.7 6.0 5.9 5.5 5.1 5.1 5.1 5.3 5.2 5.4 5.5 5.7 5.7 5.7 5.6 5.7 5.4 5.2 5.3 5.3 5.3 5.0 5.1 4.8 4.4 4.6 4.7 5.1 5.5 5.4 5.3 4.9 5.2 5.6 5.2 4.8 4.7 4.7
6.5 5.8 5.4 5.3 5.7 6.0 6.2 6.1 6.1 5.9 5.7 5.5 5.6 5.1 5.3 5.3 5.3 5.5 5.6 5.7 5.7 5.4 5.4 5.3 5.1 5.1 5.2 5.1 4.9 4.9 4.8 5.0 4.6 4.5 4.6 5.3 5.5 5.3 5.2 5.4 5.4 5.3 4.9 4.7 4.7
6.7 6.2 5.7 5.4 5.6 5.9 6.1 5.9 6.0 6.0 5.7 5.4 5.6 5.4 5.6 5.5 5.6 5.5 5.3 5.4 5.5 5.3 5.0 4.9 5.0 4.9 4.9 4.9 4.9 4.7 4.8 4.9 4.9 4.8 4.4 4.6 5.2 5.5 5.2 5.5 5.8 5.5 5.0 4.7 4.5
6.8 6.4 6.2 5.6 5.4 5.8 6.1 6.2 6.2 5.9 5.8 5.7 5.5 5.7 5.7 5.5 5.6 5.4 5.3 5.3 5.4 5.3 5.2 5.2 5.0 4.8 4.9 5.0 4.9 4.7 4.8 4.7 4.5 4.7 4.6 4.5 4.6 4.8 5.2 5.0 5.3 5.4 5.5 5.0 4.6
6.7 7.0 6.2 6.0 5.4 5.8 6.0 6.4 6.1 6.0 5.6 5.8 5.9 5.8 5.6 5.6 5.5 5.3 5.5 5.3 5.3 5.2 4.9 5.0 5.0 4.9 5.1 5.3 5.1 5.2 5.0 5.0 4.8 4.5 4.3 4.2 4.3 4.0 4.5 4.5 4.9 5.1 5.5 5.4 4.8
7.2 7.1 6.9 6.1 5.6 5.8 6.1 5.7 5.8 5.9 5.8 5.8 5.7 5.6 5.6 5.8 5.5 5.7 5.6 5.3 5.4 5.2 5.2 5.1 5.1 5.2 5.2 5.1 5.2 4.9 4.9 4.9 5.0 4.6 4.3 4.2 4.3 4.6 4.2 4.1 4.6 5.0 4.9 5.0 4.6
7.1 7.0 7.0 6.2 5.4 5.9 6.3 6.1 6.0 5.7 5.7 5.6 5.6 5.9 5.9 5.8 5.7 5.8 5.7 5.4 5.5 5.5 5.4 5.4 5.3 5.2 5.3 4.9 4.7 4.6 4.2 4.7 5.8 5.4 5.1 4.6 4.1 4.0 3.9 4.0 4.4 4.7 4.8 5.0 5.2
7.1 7.2 7.2 6.7 5.6 6.0 5.9 5.8 5.5 5.6 6.0 5.9 5.9 6.0 6.1 6.0 6.0 5.9 5.8 5.7 5.4 5.5 5.5 5.6 5.4 5.1 4.9 4.7 4.7 4.7 4.7 4.9 5.3 5.9 5.3 3.8 3.1 3.6 5.3 5.4 4.6 4.9 5.1 5.2 5.2
7.1 7.0 6.9 6.4 5.6 6.3 5.9 5.8 5.7 5.9 5.7 6.0 6.0 6.0 6.1 6.2 5.9 5.7 5.7 5.7 5.6 5.3 5.1 5.3 5.1 5.0 5.3 5.5 5.1 4.8 4.6 4.9 4.9 5.6 4.8 4.6 4.2 4.7 5.6 5.8 5.2 4.5 4.6 4.5 5.2
7.1 6.9 6.7 6.0 6.5 5.9 5.9 5.7 5.9 5.8 5.8 6.0 5.8 6.2 6.1 5.8 5.8 5.8 5.8 5.6 5.5 5.5 5.3 5.2 5.3 5.5 5.4 4.9 4.7 4.9 4.6 4.9 6.3 6.6 5.9 7.2 6.3 7.7 6.9 6.1 5.2 4.5 4.3 4.4 4.5
6.5 6.9 6.9 6.9 6.5 6.2 5.9 6.2 6.3 6.4 5.8 5.6 6.0 6.0 5.9 6.0 5.8 5.6 5.4 5.4 5.4 5.5 5.6 5.7 6.0 5.3 5.2 4.8 5.0 5.0 4.9 5.6 6.5 6.6 6.1 6.6 6.9 7.0 6.8 7.0 6.1 5.2 4.9 4.8 4.9
6.7 6.9 6.8 6.3 6.4 6.4 6.2 6.4 6.4 6.6 6.3 5.8 5.8 6.0 6.0 5.8 5.5 5.5 5.8 6.1 6.1 6.1 5.6 5.1 5.6 5.6 5.5 5.7 5.4 5.3 5.1 6.0 5.6 6.1 6.4 6.1 6.8 7.4 7.0 6.9 6.7 6.2 5.1 4.8 4.9
6.4 6.6 6.9 6.7 6.3 6.5 6.3 6.4 6.6 6.8 6.5 5.7 5.7 5.8 5.7 5.7 5.8 5.8 5.9 5.8 5.5 5.7 5.6 6.0 5.9 5.9 5.8 6.2 5.5 5.4 6.1 5.9 6.0 5.8 5.8 5.9 6.0 7.2 7.1 7.2 7.2 7.1 7.0 6.5 5.9
6.0 6.0 6.3 6.4 6.4 6.4 6.4 6.5 6.7 6.9 5.0 5.9 5.7 5.8 5.7 5.9 5.9 5.7 5.7 5.6 5.5 5.6 5.4 5.8 5.7 5.7 5.6 6.1 5.6 5.4 5.6 5.8 5.9 5.9 5.8 6.0 5.5 7.3 7.0 7.5 7.6 7.6 7.5 7.2 7.2
6.1 6.1 6.4 6.5 6.5 6.6 6.7 6.8 7.0 6.9 4.7 6.0 5.9 5.8 5.8 5.7 5.9 5.8 5.7 5.5 5.2 5.1 5.3 5.6 5.8 6.0 6.0 5.9 5.5 5.5 5.4 5.5 5.7 5.6 5.4 6.3 5.7 6.1 6.4 6.6 7.3 7.7 7.7 7.4 7.3
6.4 6.5 6.6 6.6 6.7 6.6 6.6 6.8 6.8 6.0 6.0 6.2 6.0 6.0 5.8 5.7 5.9 6.0 5.9 5.6 5.5 5.1 5.3 5.3 6.0 6.1 6.2 5.9 5.9 5.7 5.4 5.2 5.3 5.0 5.5 6.0 5.6 5.7 6.0 6.1 6.3 6.8 7.1 7.1 7.0
6.2 6.3 6.3 6.5 6.8 6.8 6.7 6.8 6.6 5.9 6.0 6.4 6.3 6.3 6.0 5.8 5.8 5.8 5.7 5.4 5.4 5.2 5.0 5.2 6.6 6.5 5.9 6.0 5.8 5.7 5.7 5.8 6.1 6.0 5.6 5.9 5.6 5.5 5.8 6.2 6.5 6.7 6.8 6.5 6.2
6.1 6.1 6.2 6.5 6.8 6.9 6.9 7.0 6.2 6.3 6.6 6.5 6.4 6.3 6.1 6.0 5.9 5.7 5.5 5.6 5.7 5.3 5.2 5.8 6.6 6.8 6.6 6.3 5.9 5.7 5.8 6.0 5.8 5.8 5.0 5.3 5.2 5.3 5.3 5.7 5.8 5.8 5.8 6.1 5.6
6.6 6.4 6.4 6.7 6.9 6.9 7.1 6.7 6.3 6.4 6.3 6.4 6.3 6.2 6.2 6.1 5.9 5.6 5.5 5.6 5.5 5.9 5.8 5.8 6.0 6.8 6.6 6.4 6.0 5.8 5.8 5.8 5.6 5.5 5.3 5.3 5.0 4.9 5.0 4.9 5.1 5.4 5.0 5.1 5.4
6.4 6.6 6.8 6.8 7.0 7.2 7.4 6.7 6.5 6.6 6.6 6.4 6.3 6.2 6.1 5.9 5.7 5.6 5.6 5.7 5.7 5.8 5.6 5.4 5.5 6.6 6.3 6.3 5.9 5.7 5.8 6.0 5.6 5.5 5.0 4.7 4.9 4.8 4.9 4.8 4.7 4.8 4.8 4.9 4.9
5.9 6.0 6.4 6.8 6.7 7.1 6.8 6.7 6.6 6.5 6.5 6.5 6.2 6.1 5.8 5.6 5.5 5.5 5.4 5.5 5.6 5.6 5.4 5.4 5.5 6.0 6.6 6.2 6.0 5.9 5.6 6.0 5.7 5.9 5.6 5.0 4.8 4.7 4.7 4.5 4.4 4.5 4.7 5.0 5.3
5.4 5.5 5.9 6.1 6.4 6.8 6.5 6.5 6.5 6.3 6.1 5.9 5.7 5.6 5.4 5.4 5.4 5.5 5.6 5.5 5.6 5.7 5.7 5.5 5.7 5.9 6.8 6.6 6.2 5.9 5.5 5.9 6.1 6.2 5.6 5.0 4.9 4.7 4.6 4.5 4.4 4.7 5.0 5.3 5.5
5.3 5.3 5.5 5.7 5.9 6.1 6.2 5.8 5.5 5.3 5.3 5.3 5.4 5.4 5.5 5.4 5.3 5.5 5.5 5.5 5.6 5.7 5.8 5.5 5.7 5.3 5.3 5.5 5.4 5.9 5.6 5.5 5.6 5.8 5.8 5.4 5.2 4.8 4.6 4.6 4.8 4.9 5.1 5.2 5.3
4.9 5.4 5.7 5.3 5.3 5.5 5.4 5.2 5.3 5.1 5.1 5.2 5.3 5.1 5.2 5.3 5.4 5.3 5.6 5.8 5.7 5.6 5.6 5.5 5.2 5.2 5.3 5.3 5.3 5.5 5.3 5.5 5.6 5.7 5.8 5.8 5.5 5.0 4.6 4.9 5.2 5.3 5.3 5.3 5.3
4.5 4.9 5.3 5.3 5.1 4.9 5.2 5.2 5.1 5.1 5.2 5.1 5.0 5.0 5.1 5.2 5.3 5.4 5.5 5.4 5.4 5.4 5.5 5.4 5.4 5.4 5.7 5.6 5.3 5.4 5.4 5.3 5.3 5.6 5.6 5.6 5.6 5.5 5.2 5.0 4.9 5.0 5.1 5.2 5.3
4.7 4.6 4.7 5.1 5.1 4.9 4.8 5.0 5.2 5.2 4.9 4.9 4.8 4.9 5.0 5.1 5.2 5.2 5.2 5.2 5.3 5.4 5.3 5.3 5.4 5.3 5.4 5.3 5.4 5.6 5.9 5.5 5.4 5.2 5.0 5.1 5.3 5.2 5.3 5.2 5.0 4.8 4.8 4.6 4.6
Wind_Speed
10 8 7 7 7 5 6 10 7 18 15 12 8 7 4 3 3 3 3 3 2 4 5 3 6 4 4 4 3 2 1 3 3 3 3 3 6 5 4 1 5 3 1 6 10
9 6 7 6 7 5 5 7 13 15 16 12 8 9 6 2 2 4 4 4 5 5 5 6 5 4 4 2 3 3 3 4 3 2 3 5 2 3 3 4 3 5 8 3 4
7 8 5 5 5 5 6 6 6 18 16 13 9 10 7 1 3 3 2 5 7 6 3 3 3 3 4 3 3 1 4 3 3 5 6 5 5 2 3 5 4 5 9 10 1
10 13 6 3 2 6 9 5 9 20 19 14 11 11 7 0 3 3 3 5 9 10 6 6 5 3 3 1 4 3 3 3 5 6 5 6 7 6 8 7 6 6 6 8 11
10 10 5 1 2 6 7 7 9 25 20 16 15 12 3 4 2 4 7 7 11 7 6 4 5 2 2 2 4 2 4 6 7 7 7 7 7 8 14 7 9 8 7 8 9
5 7 6 1 4 6 8 10 5 22 19 16 16 9 3 5 3 7 8 6 8 8 6 6 3 2 3 3 1 4 5 8 6 7 5 8 13 6 4 5 13 9 11 9 9
8 6 4 3 6 8 12 12 12 24 18 17 12 2 7 5 2 8 5 2 3 5 5 3 3 5 1 4 4 5 7 8 4 3 4 6 9 16 9 9 15 17 9 10 10
2 1 1 4 6 13 22 30 25 21 19 15 5 3 4 3 6 6 5 4 6 5 4 3 6 4 3 2 6 5 2 5 4 5 5 5 12 8 9 5 12 15 13 11 10
3 4 4 5 3 12 30 28 25 23 14 8 6 5 4 3 3 2 4 3 4 4 5 4 4 3 4 3 4 3 4 4 7 2 4 5 10 6 11 14 19 18 15 10 10
3 2 4 7 20 31 30 24 26 15 5 3 3 5 2 2 3 2 3 5 3 3 4 5 4 3 2 4 3 4 4 4 6 5 8 16 24 21 20 15 16 16 14 9 9
10 9 11 20 21 31 20 9 5 5 7 3 2 5 5 3 4 3 3 4 2 5 2 3 4 4 4 4 3 3 4 12 15 13 11 13 17 23 18 12 15 12 15 11 11
21 32 32 24 21 12 3 4 2 5 8 5 4 5 4 2 4 2 2 3 3 1 2 3 6 7 7 6 5 5 12 15 17 13 5 14 21 24 20 16 15 12 13 10 7
25 31 29 26 9 4 5 4 3 1 6 4 2 4 2 2 3 3 3 2 2 2 2 4 5 3 4 8 9 9 11 14 13 8 12 11 9 4 5 5 2 6 8 6 10
11 16 12 4 3 2 4 6 7 2 5 6 4 3 2 2 4 1 3 2 1 2 2 6 4 4 6 10 7 9 7 13 15 8 4 2 6 5 7 6 7 7 7 9 9
10 10 15 10 3 3 3 8 5 4 6 4 1 0 2 3 5 1 2 2 1 1 0 5 3 5 9 7 7 8 4 7 13 8 5 3 3 6 7 10 17 14 11 9 5
14 11 11 5 4 2 10 6 4 6 0 3 2 1 1 3 4 3 1 2 1 2 5 9 4 5 6 4 10 10 11 10 5 1 3 3 5 4 8 12 14 9 9 8 7
18 17 8 5 2 15 7 3 5 6 3 2 2 3 1 2 4 4 2 1 3 2 3 4 5 4 5 4 4 5 2 3 3 3 4 4 4 2 14 17 10 6 7 10 11
10 8 6 7 6 3 3 5 9 1 3 1 3 3 2 5 4 4 2 3 6 6 3 3 6 6 6 6 3 2 1 2 3 2 4 2 6 4 12 16 9 7 10 8 12
6 3 3 7 14 3 4 6 5 4 1 0 2 1 3 3 4 3 4 3 4 8 4 2 6 4 6 4 3 2 1 1 3 2 3 3 2 3 14 15 15 14 15 12 12
2 2 2 12 8 4 4 3 1 3 2 1 1 3 1 1 2 3 3 3 3 6 4 3 6 3 5 4 4 3 1 2 3 4 3 4 3 5 12 13 11 13 12 13 15
3 3 3 16 3 4 4 3 2 3 3 1 1 1 2 1 1 1 2 3 3 3 3 3 1 6 2 1 2 3 3 3 3 1 2 3 3 4 6 8 9 8 5 6 8
3 3 3 4 4 2 2 1 0 2 2 1 1 1 1 2 3 1 3 5 4 1 2 1 1 5 7 2 2 3 3 2 2 3 2 2 3 3 5 6 3 4 7 8 9
2 2 2 3 3 3 4 3 1 2 2 2 1 2 1 1 1 2 2 2 1 2 2 0 2 5 9 5 4 4 3 3 1 3 1 3 3 1 3 5 3 5 6 6 6
3 3 4 4 2 3 4 4 4 3 2 2 2 2 3 3 3 2 4 2 4 1 2 2 2 3 4 6 3 5 5 3 1 2 3 4 2 1 3 5 3 3 4 5 6
3 2 3 2 3 2 2 2 4 4 3 4 2 3 2 2 3 2 2 5 3 5 3 2 2 1 5 7 5 4 4 6 2 3 2 4 5 6 6 6 4 3 3 5 6
2 3 1 2 2 4 4 1 3 4 3 4 2 4 2 2 3 3 1 0 2 5 4 3 2 3 4 4 6 5 7 4 2 1 4 5 5 6 5 4 4 3 3 4 4
1 2 2 1 2 3 2 3 2 2 1 1 2 3 4 2 3 5 4 4 5 2 2 2 1 3 4 6 8 7 6 5 3 4 6 5 5 5 5 6 5 5 3 3 1
Wind_Direction
260 276 286 277 290 299 296 308 260 191 173 166 164 157 125 40 358 30 54 240 212 357 30 0 38 15 51 59 35 94 34 256 237 170 248 357 30 332 320 352 310 320 69 297 328
272 279 277 266 285 288 312 310 301 188 164 151 160 146 127 72 54 29 270 71 60 27 47 56 30 42 41 44 30 108 165 224 235 337 301 298 302 316 315 308 259 322 317 355 60
253 240 263 273 292 294 305 322 340 166 158 157 151 146 124 106 88 323 286 81 78 37 50 64 44 62 65 30 18 137 208 220 280 291 332 294 306 261 243 260 182 284 294 315 338
224 240 233 185 308 292 290 273 291 172 162 156 148 141 124 113 111 276 89 98 62 58 50 41 36 51 76 39 340 329 267 344 311 343 330 306 306 281 223 240 231 235 253 299 304
244 252 262 213 262 288 278 259 305 170 153 150 141 141 142 59 106 265 89 79 46 51 52 51 49 58 95 340 345 236 327 325 317 299 290 284 265 261 262 303 280 273 268 252 283
232 288 267 311 302 301 293 260 250 143 142 141 141 142 98 81 312 106 94 41 57 57 41 47 78 82 67 25 18 325 288 285 280 276 259 271 270 242 64 309 277 246 257 255 245
177 261 274 345 319 317 275 205 174 127 133 135 141 131 64 127 83 110 88 64 59 81 69 30 62 66 56 349 348 322 325 323 294 296 284 277 269 251 271 262 270 277 244 241 244
342 249 85 358 357 349 115 113 114 116 125 126 106 75 78 337 153 93 77 48 71 75 87 85 68 85 51 348 2 345 16 331 299 335 266 175 268 289 280 272 278 278 271 239 239
99 105 54 358 335 107 112 110 108 102 110 109 47 86 100 69 103 128 113 102 58 34 30 84 49 69 28 68 357 357 269 268 311 307 280 199 292 259 281 282 275 270 263 243 243
46 44 73 41 110 114 108 111 93 92 64 38 74 64 333 168 133 117 66 97 90 72 26 47 46 60 29 87 233 252 303 276 254 285 306 290 281 275 263 258 249 256 261 244 236
337 253 157 103 103 110 110 105 69 48 41 67 130 78 108 113 69 59 93 84 62 50 34 32 45 251 252 218 268 297 269 287 280 272 286 270 271 279 282 250 246 235 254 243 241
70 102 121 112 113 51 30 79 54 156 74 39 77 72 82 90 85 68 74 77 56 15 40 1 270 238 235 226 239 255 280 284 289 273 249 273 278 286 287 273 248 232 243 240 247
91 104 110 118 106 38 66 71 12 109 92 19 20 76 72 98 89 160 115 110 68 310 231 239 246 246 288 286 253 250 252 263 258 301 265 280 279 295 283 317 251 239 240 232 235
76 103 100 95 75 327 36 334 5 47 83 337 30 45 53 80 56 67 57 77 186 313 324 258 247 262 276 269 225 286 234 249 262 283 282 67 292 298 331 359 32 346 293 265 246
91 77 42 37 127 58 312 331 358 51 67 282 26 246 65 78 158 124 44 59 233 191 115 265 264 268 255 238 160 234 183 271 258 260 293 184 253 280 356 346 340 332 328 322 239
72 65 4 18 47 2 332 336 39 45 6 322 80 73 91 173 178 120 96 35 349 276 223 253 248 260 237 276 228 250 290 271 258 221 261 194 185 316 348 320 314 315 314 321 337
63 72 65 40 350 321 344 35 34 76 274 265 169 174 231 200 184 191 153 212 243 330 314 247 228 248 199 270 253 226 316 313 336 4 247 339 207 351 326 317 291 324 18 41 39
12 15 65 65 352 341 55 51 64 243 205 216 151 174 211 160 242 192 198 273 230 235 287 316 330 194 166 206 182 184 246 310 308 309 293 318 338 12 349 352 36 45 35 52 57
23 352 21 344 354 51 72 52 178 212 240 67 85 192 258 224 186 182 212 236 240 184 201 258 273 273 197 159 146 62 339 293 269 232 7 297 304 189 6 6 12 33 23 26 53
81 45 327 334 344 56 74 124 240 211 311 168 113 202 291 324 157 174 205 225 266 217 171 281 292 231 309 103 208 215 196 296 312 333 355 332 3 7 350 357 356 27 7 27 42
61 47 257 345 72 48 97 209 234 245 198 168 124 293 274 337 4 194 258 272 232 287 183 306 171 291 345 219 114 342 325 249 270 184 340 336 357 5 344 344 18 13 31 38 52
84 38 306 2 51 27 62 242 294 327 32 3 60 271 318 354 3 246 249 228 207 306 278 255 202 276 245 201 78 193 280 273 109 308 60 98 332 315 343 292 286 65 57 54 47
67 278 320 76 74 2 311 316 301 39 40 39 339 37 339 291 260 237 258 262 213 239 269 168 345 325 344 15 39 65 328 294 291 12 43 126 225 79 187 265 67 84 44 33 40
90 28 332 46 138 97 5 339 349 339 323 3 295 34 352 7 20 311 336 308 333 303 283 100 117 164 195 246 280 308 338 337 134 100 173 230 174 218 177 156 130 96 83 58 46
36 183 186 340 349 48 54 306 340 356 355 21 88 66 285 295 318 345 295 320 325 14 82 91 265 161 263 258 275 278 306 1 77 181 167 208 188 233 214 194 182 163 96 47 31
100 128 7 159 295 358 343 18 353 320 17 339 37 326 7 236 225 253 278 135 263 324 24 359 290 18 286 323 333 292 298 326 24 127 49 128 253 206 206 182 186 191 115 58 33
148 30 86 272 141 120 240 286 306 3 266 158 301 332 313 267 256 243 233 253 239 315 308 30 61 34 274 342 327 312 233 210 260 197 152 200 248 163 196 211 208 211 178 161 145